Retour au catalogue

ARIANE 5 R/B

ActifHEO
NORAD 40665·ROCKET BODY·🇫🇷 France

Lancé May 27, 2015 depuis Guiana Space Centre

Loading…

Prochains Passages (prochaines 24 heures)

TLE

FraisSource: Space-Track

Époque: Sep 14, 2026, 10:24 UTC

1 40665U 15026C   26257.43379168  .00003118  00000-0  59027-3 0  9997
2 40665   3.7987 286.7699 6917907  11.9450 358.5298  2.75627098102440

Suivez ARIANE 5 R/B en temps réel avec AllMySat

Download on the App Store